QPF
0.00 0.00 0.00 0.00 0.00 0.00 0.00 0.00 0.00 0.00 0.00 0.00 0.00 0.00 0.00 0.00 0.00 0.00 0.00 0.00 0.00 0.00 0.00 0.00 0.00 0.00 0.00 0.00 0.00 0.00 0.00 0.00 0.00 0.00 0.00 0.00 0.00 0.00 0.00 0.00 0.00 0.00 0.00 0.00 0.00 0.00 0.00 0.00 0.00 0.00 0.00 0.00 0.00 0.00 0.00 0.00 0.00 0.00 0.00 0.00 0.00 0.00 0.00 0.00 0.00 0.00 0.00 0.00 0.00 0.00 0.01 0.00 0.00 0.01
0.00 0.00 0.00 0.00 0.00 0.00 0.00 0.00 0.00 0.00 0.00 0.00 0.00 0.00 0.00 0.00 0.00 0.00 0.00 0.00 0.00 0.00 0.00 0.00 0.00 0.00 0.00 0.00 0.00 0.00 0.00 0.00 0.00 0.00 0.00 0.00 0.00 0.00 0.00 0.00 0.00 0.00 0.00 0.00 0.00 0.00 0.00 0.00 0.00 0.00 0.00 0.00 0.00 0.00 0.00 0.00 0.00 0.00 0.00 0.00 0.00 0.00 0.00 0.00 0.00 0.00 0.00 0.00 0.00 0.00 0.01 0.01 0.01 0.01
0.00 0.00 0.00 0.00 0.00 0.00 0.00 0.00 0.00 0.00 0.00 0.00 0.00 0.00 0.00 0.00 0.00 0.00 0.00 0.00 0.00 0.00 0.00 0.00 0.00 0.00 0.00 0.00 0.00 0.00 0.00 0.00 0.00 0.00 0.00 0.00 0.00 0.00 0.00 0.00 0.00 0.00 0.00 0.00 0.00 0.00 0.00 0.00 0.00 0.00 0.00 0.00 0.00 0.00 0.00 0.00 0.00 0.00 0.00 0.00 0.00 0.00 0.00 0.00 0.00 0.00 0.00 0.00 0.00 0.00 0.00 0.01 0.01 0.01
0.00 0.00 0.00 0.00 0.00 0.00 0.00 0.00 0.00 0.00 0.00 0.00 0.00 0.00 0.00 0.00 0.00 0.00 0.00 0.00 0.00 0.00 0.00 0.00 0.00 0.00 0.00 0.00 0.00 0.00 0.00 0.00 0.00 0.00 0.00 0.00 0.00 0.00 0.00 0.00 0.00 0.00 0.00 0.00 0.00 0.00 0.00 0.00 0.00 0.00 0.00 0.00 0.00 0.00 0.00 0.00 0.00 0.00 0.00 0.00 0.00 0.00 0.00 0.00 0.00 0.00 0.00 0.00 0.00 0.00 0.00 0.00 0.01 0.01
0.00 0.00 0.00 0.00 0.00 0.00 0.00 0.00 0.00 0.00 0.00 0.00 0.00 0.00 0.00 0.00 0.00 0.00 0.00 0.00 0.00 0.00 0.00 0.00 0.00 0.00 0.00 0.00 0.00 0.00 0.00 0.00 0.00 0.00 0.00 0.00 0.00 0.00 0.00 0.00 0.00 0.00 0.00 0.00 0.00 0.00 0.00 0.00 0.00 0.00 0.00 0.00 0.00 0.00 0.00 0.00 0.00 0.00 0.00 0.00 0.00 0.00 0.00 0.00 0.00 0.00 0.00 0.00 0.00 0.00 0.00 0.00 0.00 0.01
0.00 0.00 0.00 0.00 0.00 0.00 0.00 0.00 0.00 0.00 0.00 0.00 0.00 0.00 0.00 0.00 0.00 0.00 0.00 0.00 0.00 0.00 0.00 0.00 0.00 0.00 0.00 0.00 0.00 0.00 0.00 0.00 0.00 0.00 0.00 0.00 0.00 0.00 0.00 0.00 0.00 0.00 0.00 0.00 0.00 0.00 0.00 0.00 0.00 0.00 0.00 0.00 0.00 0.00 0.00 0.00 0.00 0.00 0.00 0.00 0.00 0.00 0.00 0.00 0.00 0.00 0.00 0.00 0.00 0.00 0.00 0.00 0.00 0.00
0.00 0.00 0.00 0.00 0.00 0.00 0.00 0.00 0.00 0.00 0.00 0.00 0.00 0.00 0.00 0.00 0.00 0.00 0.00 0.00 0.00 0.00 0.00 0.00 0.00 0.00 0.00 0.00 0.00 0.00 0.00 0.00 0.00 0.00 0.00 0.00 0.00 0.00 0.00 0.00 0.00 0.00 0.00 0.00 0.00 0.00 0.00 0.00 0.00 0.00 0.00 0.00 0.00 0.00 0.00 0.00 0.00 0.00 0.00 0.00 0.00 0.00 0.00 0.00 0.00 0.00 0.00 0.00 0.00 0.00 0.00 0.00 0.00 0.00
0.00 0.00 0.00 0.00 0.00 0.00 0.00 0.00 0.00 0.00 0.00 0.00 0.00 0.00 0.00 0.00 0.00 0.00 0.00 0.00 0.00 0.00 0.00 0.00 0.00 0.00 0.00 0.00 0.00 0.00 0.00 0.00 0.00 0.00 0.00 0.00 0.00 0.00 0.00 0.00 0.00 0.00 0.00 0.00 0.00 0.00 0.00 0.00 0.00 0.00 0.00 0.00 0.00 0.00 0.00 0.00 0.00 0.00 0.00 0.00 0.00 0.00 0.00 0.00 0.00 0.00 0.00 0.00 0.00 0.00 0.00 0.00 0.00 0.00
0.00 0.00 0.00 0.00 0.00 0.00 0.00 0.00 0.00 0.00 0.00 0.00 0.00 0.00 0.00 0.00 0.00 0.00 0.00 0.00 0.00 0.00 0.00 0.00 0.00 0.00 0.00 0.00 0.00 0.00 0.00 0.00 0.00 0.00 0.00 0.00 0.00 0.00 0.00 0.00 0.00 0.00 0.00 0.00 0.00 0.00 0.00 0.00 0.00 0.00 0.00 0.00 0.00 0.00 0.00 0.00 0.00 0.00 0.00 0.00 0.00 0.00 0.00 0.00 0.00 0.00 0.00 0.00 0.00 0.00 0.00 0.00 0.00 0.00
0.00 0.00 0.00 0.00 0.00 0.00 0.00 0.00 0.00 0.00 0.00 0.00 0.00 0.00 0.00 0.00 0.00 0.00 0.00 0.00 0.00 0.00 0.00 0.00 0.00 0.00 0.00 0.00 0.00 0.00 0.00 0.00 0.00 0.00 0.00 0.00 0.00 0.00 0.00 0.00 0.00 0.00 0.00 0.00 0.00 0.00 0.00 0.00 0.00 0.00 0.00 0.00 0.00 0.00 0.00 0.00 0.00 0.00 0.00 0.00 0.00 0.00 0.00 0.00 0.00 0.00 0.00 0.00 0.00 0.00 0.00 0.00 0.00 0.00
0.00 0.00 0.00 0.00 0.00 0.00 0.00 0.00 0.00 0.00 0.00 0.00 0.00 0.00 0.00 0.00 0.00 0.00 0.00 0.00 0.00 0.00 0.00 0.00 0.00 0.00 0.00 0.00 0.00 0.00 0.00 0.00 0.00 0.00 0.00 0.00 0.00 0.00 0.00 0.00 0.00 0.00 0.00 0.00 0.00 0.00 0.00 0.00 0.00 0.00 0.00 0.00 0.00 0.00 0.00 0.00 0.00 0.00 0.00 0.00 0.00 0.00 0.00 0.00 0.00 0.00 0.00 0.00 0.00 0.00 0.00 0.00 0.00 0.00
0.00 0.00 0.00 0.00 0.00 0.00 0.00 0.00 0.00 0.00 0.00 0.00 0.00 0.00 0.00 0.00 0.00 0.00 0.00 0.00 0.00 0.00 0.00 0.00 0.00 0.00 0.00 0.00 0.00 0.00 0.00 0.00 0.00 0.00 0.00 0.00 0.00 0.00 0.00 0.00 0.00 0.00 0.00 0.00 0.00 0.00 0.00 0.00 0.00 0.00 0.00 0.00 0.00 0.00 0.00 0.00 0.00 0.00 0.00 0.00 0.00 0.00 0.00 0.00 0.00 0.00 0.00 0.00 0.00 0.00 0.00 0.00 0.00 0.00
0.00 0.00 0.00 0.00 0.00 0.00 0.00 0.00 0.00 0.00 0.00 0.00 0.00 0.00 0.00 0.00 0.00 0.00 0.00 0.00 0.00 0.00 0.00 0.00 0.00 0.00 0.00 0.00 0.00 0.00 0.00 0.00 0.00 0.00 0.00 0.00 0.00 0.00 0.00 0.00 0.00 0.00 0.00 0.00 0.00 0.00 0.00 0.00 0.00 0.00 0.00 0.00 0.00 0.00 0.00 0.00 0.00 0.00 0.00 0.00 0.00 0.00 0.00 0.00 0.00 0.00 0.00 0.00 0.00 0.00 0.00 0.00 0.00 0.00
0.00 0.00 0.00 0.00 0.00 0.00 0.00 0.00 0.00 0.00 0.00 0.00 0.00 0.00 0.00 0.00 0.00 0.00 0.00 0.00 0.00 0.00 0.00 0.00 0.00 0.00 0.00 0.00 0.00 0.00 0.00 0.00 0.00 0.00 0.00 0.00 0.00 0.00 0.00 0.00 0.00 0.00 0.00 0.00 0.00 0.00 0.00 0.00 0.00 0.00 0.00 0.00 0.00 0.00 0.00 0.00 0.00 0.00 0.00 0.00 0.00 0.00 0.00 0.00 0.00 0.00 0.00 0.00 0.00 0.00 0.00 0.00 0.00 0.00
0.00 0.00 0.00 0.00 0.00 0.00 0.00 0.00 0.00 0.00 0.00 0.00 0.00 0.00 0.00 0.00 0.00 0.00 0.00 0.00 0.00 0.00 0.00 0.00 0.00 0.00 0.00 0.00 0.00 0.00 0.00 0.00 0.00 0.00 0.00 0.00 0.00 0.00 0.00 0.00 0.00 0.00 0.00 0.00 0.00 0.00 0.00 0.00 0.00 0.00 0.00 0.00 0.00 0.00 0.00 0.00 0.00 0.00 0.00 0.00 0.00 0.00 0.00 0.00 0.00 0.00 0.00 0.00 0.00 0.00 0.00 0.00 0.00 0.00
0.00 0.00 0.00 0.00 0.00 0.00 0.00 0.00 0.00 0.00 0.00 0.00 0.00 0.00 0.00 0.00 0.00 0.00 0.00 0.00 0.00 0.00 0.00 0.00 0.00 0.00 0.00 0.00 0.00 0.00 0.00 0.00 0.00 0.00 0.00 0.00 0.00 0.00 0.00 0.00 0.00 0.00 0.00 0.00 0.00 0.00 0.00 0.00 0.00 0.00 0.00 0.00 0.00 0.00 0.00 0.00 0.00 0.00 0.00 0.00 0.00 0.00 0.00 0.00 0.00 0.00 0.00 0.00 0.00 0.00 0.00 0.00 0.00 0.00
0.00 0.00 0.00 0.00 0.00 0.00 0.00 0.00 0.00 0.00 0.00 0.00 0.00 0.00 0.00 0.00 0.00 0.00 0.00 0.00 0.00 0.00 0.00 0.00 0.00 0.00 0.00 0.00 0.00 0.00 0.00 0.00 0.00 0.00 0.00 0.00 0.00 0.00 0.00 0.00 0.00 0.00 0.00 0.00 0.00 0.00 0.00 0.00 0.00 0.00 0.00 0.00 0.00 0.00 0.00 0.00 0.00 0.00 0.00 0.00 0.00 0.00 0.00 0.00 0.00 0.00 0.00 0.00 0.00 0.00 0.00 0.00 0.00 0.00
0.00 0.00 0.00 0.00 0.00 0.00 0.00 0.00 0.00 0.00 0.00 0.00 0.00 0.00 0.00 0.00 0.00 0.00 0.00 0.00 0.00 0.00 0.00 0.00 0.00 0.00 0.00 0.00 0.00 0.00 0.00 0.00 0.00 0.00 0.00 0.00 0.00 0.00 0.00 0.00 0.00 0.00 0.00 0.00 0.00 0.00 0.00 0.00 0.00 0.00 0.00 0.00 0.00 0.00 0.00 0.00 0.00 0.00 0.00 0.00 0.00 0.00 0.00 0.00 0.00 0.00 0.00 0.00 0.00 0.00 0.00 0.00 0.00 0.00
0.00 0.00 0.00 0.00 0.00 0.00 0.00 0.00 0.00 0.00 0.00 0.00 0.00 0.00 0.00 0.00 0.00 0.00 0.00 0.00 0.00 0.00 0.00 0.00 0.00 0.00 0.00 0.00 0.00 0.00 0.00 0.00 0.00 0.00 0.00 0.00 0.00 0.00 0.00 0.00 0.00 0.00 0.00 0.00 0.00 0.00 0.00 0.00 0.00 0.00 0.00 0.00 0.00 0.00 0.00 0.00 0.00 0.00 0.00 0.00 0.00 0.00 0.00 0.00 0.00 0.00 0.00 0.00 0.00 0.00 0.00 0.00 0.00 0.00
0.00 0.00 0.00 0.00 0.00 0.00 0.00 0.00 0.00 0.00 0.00 0.00 0.00 0.00 0.00 0.00 0.00 0.00 0.00 0.00 0.00 0.00 0.00 0.00 0.00 0.00 0.00 0.00 0.00 0.00 0.00 0.00 0.00 0.00 0.00 0.00 0.00 0.00 0.00 0.00 0.00 0.00 0.00 0.00 0.00 0.00 0.00 0.00 0.00 0.00 0.00 0.00 0.00 0.00 0.00 0.00 0.00 0.00 0.00 0.00 0.00 0.00 0.00 0.00 0.00 0.00 0.00 0.00 0.00 0.00 0.00 0.00 0.00 0.00
0.00 0.00 0.00 0.00 0.00 0.00 0.00 0.00 0.00 0.00 0.00 0.00 0.00 0.00 0.00 0.00 0.00 0.00 0.00 0.00 0.00 0.00 0.00 0.00 0.00 0.00 0.00 0.00 0.00 0.00 0.00 0.00 0.00 0.00 0.00 0.00 0.00 0.00 0.00 0.00 0.00 0.00 0.00 0.00 0.00 0.00 0.00 0.00 0.00 0.00 0.00 0.00 0.00 0.00 0.00 0.00 0.00 0.00 0.00 0.00 0.00 0.00 0.00 0.00 0.00 0.00 0.00 0.00 0.00 0.00 0.00 0.00 0.00 0.00
0.00 0.00 0.00 0.00 0.00 0.00 0.00 0.00 0.00 0.00 0.00 0.00 0.00 0.00 0.00 0.00 0.00 0.00 0.00 0.00 0.00 0.00 0.00 0.00 0.00 0.00 0.00 0.00 0.00 0.00 0.00 0.00 0.00 0.00 0.00 0.00 0.00 0.00 0.00 0.00 0.00 0.00 0.00 0.00 0.00 0.00 0.00 0.00 0.00 0.00 0.00 0.00 0.00 0.00 0.00 0.00 0.00 0.00 0.00 0.00 0.00 0.00 0.00 0.00 0.00 0.00 0.00 0.00 0.00 0.00 0.00 0.00 0.00 0.00
0.00 0.00 0.00 0.00 0.00 0.00 0.00 0.00 0.00 0.00 0.00 0.00 0.00 0.00 0.00 0.00 0.00 0.00 0.00 0.00 0.00 0.00 0.00 0.00 0.00 0.00 0.00 0.00 0.00 0.00 0.00 0.00 0.00 0.00 0.00 0.00 0.00 0.00 0.00 0.00 0.00 0.00 0.00 0.00 0.00 0.00 0.00 0.00 0.00 0.00 0.00 0.00 0.00 0.00 0.00 0.00 0.00 0.00 0.00 0.00 0.00 0.00 0.00 0.00 0.00 0.00 0.00 0.00 0.00 0.00 0.00 0.00 0.00 0.00
0.00 0.00 0.00 0.00 0.00 0.00 0.00 0.00 0.00 0.00 0.00 0.00 0.00 0.00 0.00 0.00 0.00 0.00 0.00 0.00 0.00 0.00 0.00 0.00 0.00 0.00 0.00 0.00 0.00 0.00 0.00 0.00 0.00 0.00 0.00 0.00 0.00 0.00 0.00 0.00 0.00 0.00 0.00 0.00 0.00 0.00 0.00 0.00 0.00 0.00 0.00 0.00 0.00 0.00 0.00 0.00 0.00 0.00 0.00 0.00 0.00 0.00 0.00 0.00 0.00 0.00 0.00 0.00 0.00 0.00 0.00 0.00 0.00 0.00
0.00 0.00 0.00 0.00 0.00 0.00 0.00 0.00 0.00 0.00 0.00 0.00 0.00 0.00 0.00 0.00 0.00 0.00 0.00 0.00 0.00 0.00 0.00 0.00 0.00 0.00 0.00 0.00 0.00 0.00 0.00 0.00 0.00 0.00 0.00 0.00 0.00 0.01 0.00 0.00 0.00 0.00 0.00 0.00 0.00 0.00 0.00 0.00 0.00 0.00 0.00 0.00 0.00 0.00 0.00 0.00 0.00 0.00 0.00 0.00 0.00 0.00 0.00 0.00 0.00 0.00 0.00 0.00 0.00 0.00 0.00 0.00 0.00 0.00
0.00 0.00 0.00 0.00 0.00 0.00 0.00 0.00 0.00 0.00 0.00 0.00 0.00 0.00 0.00 0.00 0.00 0.00 0.00 0.00 0.00 0.00 0.00 0.00 0.00 0.00 0.00 0.00 0.00 0.00 0.00 0.00 0.00 0.00 0.00 0.00 0.00 0.00 0.00 0.00 0.00 0.00 0.00 0.00 0.00 0.01 0.00 0.00 0.00 0.00 0.00 0.00 0.00 0.00 0.00 0.00 0.00 0.00 0.00 0.00 0.00 0.00 0.00 0.00 0.00 0.00 0.00 0.00 0.00 0.00 0.00 0.00 0.00 0.00
0.00 0.00 0.00 0.00 0.00 0.00 0.00 0.00 0.00 0.00 0.00 0.00 0.00 0.00 0.00 0.00 0.00 0.00 0.00 0.00 0.00 0.00 0.00 0.00 0.00 0.00 0.00 0.00 0.00 0.00 0.00 0.00 0.00 0.00 0.00 0.00 0.00 0.00 0.00 0.00 0.00 0.00 0.00 0.00 0.00 0.00 0.00 0.00 0.00 0.00 0.00 0.00 0.00 0.00 0.00 0.00 0.00 0.00 0.00 0.00 0.00 0.00 0.00 0.00 0.00 0.00 0.00 0.00 0.00 0.00 0.00 0.00 0.00 0.00
0.01 0.01 0.00 0.00 0.00 0.01 0.01 0.01 0.00 0.00 0.00 0.00 0.00 0.00 0.00 0.00 0.00 0.00 0.00 0.00 0.00 0.00 0.00 0.00 0.00 0.00 0.00 0.00 0.00 0.00 0.00 0.00 0.00 0.00 0.00 0.00 0.00 0.00 0.00 0.00 0.00 0.00 0.00 0.00 0.00 0.00 0.00 0.00 0.00 0.00 0.00 0.01 0.00 0.00 0.00 0.00 0.00 0.00 0.00 0.00 0.00 0.00 0.00 0.00 0.00 0.00 0.00 0.00 0.00 0.00 0.00 0.00 0.00 0.00
0.01 0.00 0.00 0.00 0.00 0.01 0.01 0.01 0.00 0.00 0.00 0.00 0.00 0.00 0.00 0.00 0.00 0.00 0.00 0.00 0.00 0.00 0.00 0.00 0.00 0.00 0.00 0.00 0.00 0.00 0.00 0.00 0.00 0.00 0.00 0.00 0.00 0.00 0.00 0.00 0.00 0.00 0.00 0.00 0.00 0.00 0.00 0.00 0.00 0.00 0.00 0.00 0.00 0.00 0.00 0.00 0.00 0.00 0.00 0.00 0.00 0.00 0.00 0.00 0.00 0.00 0.00 0.00 0.00 0.00 0.00 0.00 0.00 0.00
0.00 0.00 0.00 0.00 0.00 0.00 0.00 0.00 0.00 0.00 0.00 0.00 0.00 0.00 0.00 0.00 0.00 0.00 0.00 0.00 0.00 0.00 0.00 0.00 0.00 0.00 0.00 0.00 0.00 0.00 0.00 0.00 0.00 0.00 0.00 0.00 0.00 0.00 0.00 0.00 0.00 0.00 0.00 0.00 0.00 0.00 0.00 0.00 0.00 0.00 0.00 0.00 0.00 0.00 0.00 0.00 0.00 0.00 0.00 0.00 0.00 0.00 0.00 0.00 0.00 0.00 0.00 0.00 0.00 0.00 0.00 0.00 0.00 0.00
0.01 0.01 0.01 0.01 0.01 0.00 0.00 0.00 0.00 0.00 0.00 0.00 0.00 0.00 0.00 0.00 0.00 0.00 0.00 0.00 0.00 0.00 0.00 0.00 0.00 0.00 0.00 0.00 0.00 0.00 0.00 0.00 0.00 0.00 0.00 0.00 0.00 0.00 0.00 0.00 0.00 0.00 0.00 0.00 0.00 0.00 0.00 0.00 0.00 0.00 0.00 0.00 0.00 0.00 0.00 0.00 0.00 0.00 0.00 0.00 0.00 0.00 0.00 0.00 0.00 0.00 0.00 0.00 0.00 0.00 0.00 0.00 0.00 0.00
0.00 0.00 0.00 0.00 0.00 0.00 0.00 0.00 0.00 0.00 0.00 0.00 0.00 0.00 0.00 0.00 0.00 0.00 0.00 0.00 0.00 0.00 0.00 0.00 0.00 0.00 0.00 0.00 0.00 0.00 0.00 0.00 0.00 0.00 0.00 0.00 0.00 0.00 0.00 0.00 0.00 0.00 0.00 0.00 0.00 0.00 0.00 0.00 0.00 0.00 0.00 0.00 0.00 0.00 0.00 0.00 0.00 0.00 0.00 0.00 0.00 0.00 0.00 0.00 0.00 0.00 0.00 0.00 0.00 0.00 0.00 0.00 0.00 0.00
0.00 0.00 0.00 0.00 0.00 0.00 0.00 0.00 0.00 0.00 0.00 0.00 0.00 0.00 0.00 0.00 0.00 0.00 0.01 0.00 0.00 0.00 0.00 0.00 0.00 0.00 0.00 0.00 0.00 0.00 0.00 0.00 0.00 0.00 0.00 0.00 0.00 0.00 0.00 0.00 0.00 0.00 0.00 0.00 0.00 0.00 0.00 0.00 0.00 0.00 0.00 0.00 0.00 0.00 0.00 0.00 0.00 0.00 0.00 0.00 0.00 0.00 0.00 0.00 0.00 0.00 0.00 0.00 0.00 0.00 0.00 0.00 0.00 0.00
0.00 0.00 0.00 0.00 0.00 0.00 0.00 0.00 0.00 0.00 0.00 0.00 0.00 0.00 0.00 0.00 0.00 0.00 0.00 0.01 0.01 0.01 0.01 0.00 0.00 0.00 0.00 0.00 0.00 0.00 0.00 0.00 0.00 0.00 0.00 0.00 0.00 0.00 0.00 0.00 0.00 0.00 0.00 0.00 0.00 0.00 0.00 0.00 0.00 0.00 0.00 0.00 0.00 0.00 0.00 0.00 0.00 0.00 0.00 0.00 0.00 0.00 0.00 0.00 0.00 0.00 0.00 0.00 0.00 0.00 0.00 0.00 0.00 0.00
0.00 0.00 0.00 0.00 0.00 0.00 0.00 0.00 0.00 0.00 0.00 0.00 0.00 0.00 0.00 0.00 0.01 0.01 0.01 0.01 0.01 0.01 0.01 0.00 0.00 0.00 0.00 0.00 0.00 0.00 0.00 0.00 0.00 0.00 0.00 0.00 0.00 0.00 0.00 0.00 0.00 0.00 0.00 0.00 0.00 0.00 0.00 0.00 0.01 0.00 0.00 0.00 0.00 0.00 0.00 0.00 0.00 0.00 0.00 0.00 0.00 0.00 0.00 0.00 0.00 0.00 0.00 0.00 0.00 0.00 0.00 0.00 0.00 0.00
0.00 0.00 0.00 0.00 0.00 0.00 0.00 0.00 0.00 0.00 0.00 0.00 0.00 0.00 0.00 0.00 0.00 0.01 0.01 0.01 0.02 0.01 0.01 0.01 0.01 0.01 0.01 0.01 0.00 0.00 0.00 0.00 0.00 0.00 0.00 0.00 0.00 0.00 0.00 0.00 0.00 0.00 0.00 0.00 0.00 0.00 0.00 0.00 0.01 0.01 0.00 0.00 0.00 0.00 0.00 0.00 0.00 0.00 0.00 0.00 0.00 0.00 0.00 0.00 0.00 0.00 0.00 0.00 0.00 0.00 0.00 0.00 0.00 0.00
0.00 0.00 0.00 0.00 0.00 0.00 0.00 0.00 0.00 0.00 0.00 0.00 0.00 0.00 0.00 0.00 0.00 0.00 0.00 0.00 0.01 0.01 0.01 0.02 0.01 0.01 0.01 0.01 0.00 0.00 0.00 0.00 0.00 0.00 0.00 0.00 0.00 0.00 0.00 0.00 0.00 0.00 0.00 0.00 0.00 0.00 0.00 0.00 0.00 0.00 0.00 0.00 0.00 0.00 0.00 0.00 0.00 0.00 0.00 0.00 0.00 0.00 0.00 0.00 0.00 0.00 0.00 0.00 0.00 0.00 0.00 0.00 0.00 0.00
0.00 0.00 0.00 0.00 0.00 0.00 0.00 0.00 0.00 0.00 0.00 0.00 0.00 0.00 0.00 0.00 0.00 0.00 0.00 0.00 0.00 0.00 0.01 0.01 0.01 0.01 0.01 0.01 0.01 0.01 0.01 0.01 0.01 0.01 0.00 0.00 0.00 0.00 0.00 0.00 0.00 0.00 0.00 0.00 0.00 0.00 0.00 0.00 0.00 0.00 0.01 0.01 0.01 0.00 0.00 0.00 0.00 0.00 0.00 0.00 0.00 0.00 0.00 0.00 0.00 0.00 0.00 0.00 0.00 0.00 0.00 0.00 0.00 0.00
0.00 0.00 0.00 0.00 0.00 0.00 0.00 0.00 0.00 0.00 0.00 0.00 0.00 0.00 0.00 0.00 0.00 0.00 0.00 0.00 0.00 0.00 0.00 0.00 0.00 0.01 0.02 0.03 0.04 0.06 0.07 0.04 0.02 0.02 0.01 0.01 0.01 0.01 0.01 0.01 0.01 0.00 0.00 0.00 0.00 0.00 0.00 0.00 0.00 0.00 0.00 0.00 0.00 0.00 0.00 0.00 0.00 0.00 0.00 0.00 0.00 0.00 0.00 0.00 0.00 0.00 0.00 0.00 0.00 0.00 0.00 0.00 0.00 0.00
0.00 0.00 0.00 0.00 0.00 0.00 0.00 0.00 0.00 0.00 0.00 0.00 0.00 0.00 0.00 0.00 0.00 0.00 0.00 0.00 0.00 0.00 0.01 0.01 0.00 0.01 0.01 0.01 0.01 0.02 0.03 0.03 0.02 0.02 0.01 0.02 0.02 0.02 0.02 0.02 0.02 0.02 0.02 0.01 0.01 0.00 0.01 0.00 0.00 0.00 0.00 0.00 0.00 0.00 0.00 0.00 0.00 0.00 0.00 0.00 0.00 0.00 0.00 0.00 0.00 0.00 0.00 0.00 0.00 0.00 0.00 0.00 0.00 0.00
0.00 0.00 0.00 0.00 0.00 0.00 0.00 0.00 0.00 0.00 0.00 0.00 0.00 0.00 0.00 0.00 0.00 0.00 0.01 0.01 0.01 0.01 0.01 0.01 0.01 0.01 0.01 0.01 0.01 0.03 0.04 0.03 0.02 0.02 0.02 0.03 0.03 0.03 0.03 0.05 0.07 0.04 0.03 0.02 0.01 0.00 0.00 0.00 0.00 0.00 0.00 0.00 0.00 0.01 0.02 0.02 0.01 0.00 0.00 0.00 0.00 0.00 0.00 0.00 0.00 0.00 0.00 0.00 0.00 0.00 0.00 0.00 0.00 0.00
0.00 0.00 0.00 0.00 0.00 0.00 0.00 0.00 0.00 0.00 0.00 0.00 0.00 0.00 0.00 0.00 0.00 0.00 0.01 0.01 0.01 0.01 0.01 0.01 0.01 0.01 0.01 0.01 0.01 0.01 0.02 0.02 0.02 0.02 0.03 0.04 0.03 0.02 0.01 0.01 0.02 0.01 0.02 0.02 0.01 0.00 0.00 0.00 0.00 0.00 0.00 0.00 0.01 0.03 0.03 0.01 0.00 0.00 0.00 0.00 0.00 0.00 0.00 0.00 0.00 0.00 0.00 0.00 0.00 0.00 0.00 0.00 0.00 0.00
0.00 0.00 0.00 0.00 0.00 0.00 0.00 0.00 0.00 0.00 0.00 0.00 0.00 0.00 0.00 0.00 0.00 0.00 0.00 0.00 0.01 0.01 0.01 0.01 0.01 0.01 0.01 0.01 0.01 0.02 0.03 0.14 0.17 0.02 0.03 0.02 0.04 0.05 0.04 0.03 0.03 0.03 0.03 0.02 0.01 0.00 0.00 0.00 0.01 0.01 0.01 0.01 0.01 0.01 0.02 0.01 0.00 0.00 0.00 0.00 0.00 0.00 0.00 0.00 0.00 0.00 0.00 0.00 0.00 0.00 0.00 0.00 0.01 0.01
0.00 0.00 0.00 0.00 0.00 0.00 0.00 0.00 0.00 0.00 0.00 0.00 0.00 0.00 0.00 0.00 0.00 0.00 0.00 0.00 0.00 0.00 0.00 0.01 0.00 0.00 0.00 0.00 0.01 0.01 0.01 0.01 0.01 0.01 0.01 0.03 0.05 0.05 0.05 0.02 0.01 0.01 0.01 0.01 0.01 0.00 0.00 0.00 0.00 0.01 0.01 0.02 0.01 0.01 0.02 0.01 0.00 0.00 0.00 0.00 0.00 0.00 0.00 0.00 0.00 0.00 0.00 0.00 0.00 0.00 0.00 0.00 0.04 0.03
0.00 0.00 0.00 0.00 0.00 0.00 0.00 0.00 0.00 0.00 0.00 0.00 0.00 0.00 0.00 0.00 0.00 0.00 0.00 0.00 0.00 0.00 0.00 0.00 0.00 0.00 0.00 0.00 0.00 0.00 0.00 0.00 0.00 0.00 0.01 0.01 0.01 0.01 0.02 0.02 0.02 0.01 0.01 0.01 0.01 0.01 0.00 0.00 0.01 0.01 0.02 0.02 0.01 0.01 0.01 0.00 0.00 0.00 0.00 0.00 0.00 0.00 0.00 0.00 0.00 0.00 0.00 0.00 0.00 0.00 0.13 0.36 0.24 0.10
MSLP
1023.54 1023.62 1023.62 1023.58 1023.50 1023.34 1023.22 1023.18 1023.14 1023.18 1023.18 1023.26 1023.38 1023.54 1024.06 1024.34 1025.34 1025.86 1025.74 1025.02 1024.66 1023.46 1022.98 1023.38 1022.10 1021.34 1021.26 1021.22 1020.94 1020.94 1020.86 1020.66 1020.58 1020.54 1020.54 1020.54 1020.46 1020.30 1020.34 1020.30 1020.26 1020.18 1020.14 1020.10 1020.06 1020.02 1020.02 1020.02 1020.02 1020.02 1019.98 1019.98 1020.02 1020.02 1020.02 1020.02 1020.02 1020.10 1020.10 1020.10 1020.06 1020.02 1019.90 1019.82 1019.74 1019.58 1019.42 1019.26 1019.10 1018.98 1018.86 1018.78 1018.70 1018.50
1023.46 1023.50 1023.54 1023.50 1023.46 1023.18 1023.18 1023.06 1022.98 1023.06 1023.02 1023.10 1023.22 1023.34 1023.50 1023.62 1024.58 1024.98 1025.70 1025.38 1024.22 1023.86 1022.86 1022.70 1022.66 1021.62 1021.46 1021.18 1021.10 1020.94 1020.90 1020.66 1020.58 1020.46 1020.42 1020.38 1020.22 1020.14 1020.14 1020.10 1020.02 1019.98 1019.98 1019.98 1019.90 1019.86 1019.82 1019.82 1019.86 1019.86 1019.86 1019.86 1019.90 1019.94 1019.90 1019.90 1019.90 1019.94 1020.02 1020.02 1020.02 1019.98 1019.90 1019.86 1019.74 1019.62 1019.50 1019.34 1019.14 1018.98 1018.86 1018.78 1018.74 1018.62
1023.34 1023.50 1023.58 1023.46 1023.38 1023.18 1023.14 1022.98 1022.86 1022.94 1022.94 1022.94 1023.02 1023.18 1023.30 1023.50 1023.74 1024.22 1024.62 1025.54 1024.06 1023.66 1023.62 1022.66 1022.02 1022.06 1021.62 1021.26 1021.18 1020.94 1020.74 1020.54 1020.42 1020.34 1020.30 1020.22 1020.14 1020.14 1020.02 1019.94 1019.90 1019.90 1019.90 1019.82 1019.78 1019.70 1019.70 1019.70 1019.70 1019.70 1019.70 1019.70 1019.74 1019.78 1019.78 1019.78 1019.74 1019.82 1019.86 1019.90 1019.94 1019.94 1019.90 1019.82 1019.78 1019.66 1019.54 1019.42 1019.22 1019.06 1018.90 1018.82 1018.78 1018.70
1023.18 1023.34 1023.46 1023.34 1023.30 1023.14 1023.10 1023.06 1022.94 1022.90 1022.86 1022.86 1022.98 1023.06 1023.18 1023.38 1023.42 1023.62 1024.18 1024.82 1024.66 1023.26 1023.06 1022.66 1022.10 1021.74 1021.70 1021.34 1021.38 1021.06 1020.74 1020.30 1020.30 1020.22 1020.14 1020.06 1020.06 1019.98 1019.86 1019.74 1019.74 1019.70 1019.66 1019.62 1019.58 1019.58 1019.58 1019.58 1019.54 1019.50 1019.50 1019.50 1019.54 1019.62 1019.62 1019.62 1019.58 1019.62 1019.70 1019.78 1019.82 1019.82 1019.82 1019.78 1019.70 1019.66 1019.54 1019.42 1019.30 1019.14 1018.98 1018.86 1018.86 1018.74
1023.10 1023.18 1023.30 1023.22 1023.10 1023.02 1023.18 1023.06 1022.98 1022.90 1022.86 1022.94 1022.98 1022.98 1023.10 1023.30 1023.38 1023.46 1023.86 1024.38 1024.30 1023.30 1022.58 1022.66 1022.26 1021.66 1021.66 1021.58 1021.10 1021.22 1020.90 1020.62 1020.30 1020.14 1020.06 1020.02 1020.02 1019.86 1019.78 1019.58 1019.46 1019.42 1019.38 1019.38 1019.38 1019.38 1019.38 1019.38 1019.34 1019.30 1019.30 1019.30 1019.34 1019.42 1019.46 1019.42 1019.42 1019.46 1019.54 1019.62 1019.70 1019.70 1019.70 1019.66 1019.62 1019.58 1019.54 1019.42 1019.30 1019.18 1019.06 1018.98 1018.90 1018.82
1023.10 1023.10 1023.22 1023.10 1022.98 1022.90 1023.06 1022.98 1022.98 1022.90 1022.90 1022.94 1023.06 1023.06 1023.14 1023.26 1023.26 1023.06 1023.54 1023.86 1024.06 1024.02 1022.90 1022.62 1021.98 1021.90 1021.46 1021.98 1020.94 1021.22 1021.14 1020.82 1020.46 1020.46 1020.18 1019.94 1019.86 1019.82 1019.62 1019.54 1019.26 1019.14 1019.14 1019.14 1019.14 1019.14 1019.14 1019.14 1019.10 1019.06 1019.06 1019.14 1019.14 1019.22 1019.30 1019.30 1019.26 1019.26 1019.34 1019.42 1019.50 1019.54 1019.58 1019.54 1019.54 1019.50 1019.50 1019.42 1019.34 1019.22 1019.14 1019.06 1018.94 1018.86
1023.14 1023.26 1023.26 1023.14 1022.94 1022.86 1023.06 1022.98 1022.90 1022.78 1022.86 1022.86 1022.98 1022.94 1022.90 1023.10 1023.06 1023.02 1023.06 1023.50 1023.90 1023.78 1023.38 1022.58 1022.58 1022.14 1021.74 1021.82 1021.42 1020.94 1020.86 1020.70 1020.62 1020.70 1020.38 1020.10 1019.78 1019.58 1019.50 1019.38 1019.10 1018.90 1018.90 1018.86 1018.82 1018.86 1018.82 1018.82 1018.82 1018.82 1018.90 1018.98 1018.98 1018.98 1019.10 1019.14 1019.10 1019.06 1019.10 1019.18 1019.26 1019.30 1019.38 1019.42 1019.42 1019.42 1019.42 1019.38 1019.34 1019.26 1019.18 1019.06 1018.98 1018.90
1023.06 1023.14 1023.26 1023.10 1022.94 1022.94 1023.14 1022.98 1022.90 1022.78 1022.78 1022.82 1022.82 1022.86 1022.74 1022.86 1022.86 1022.82 1022.94 1022.98 1023.34 1023.42 1023.70 1022.82 1022.62 1022.06 1022.14 1021.66 1021.18 1021.02 1020.86 1020.86 1020.74 1020.66 1020.34 1020.02 1019.98 1019.66 1019.38 1019.26 1019.06 1018.74 1018.70 1018.66 1018.62 1018.58 1018.58 1018.58 1018.58 1018.58 1018.70 1018.74 1018.74 1018.74 1018.82 1018.94 1018.90 1018.86 1018.86 1018.94 1018.98 1019.06 1019.14 1019.22 1019.26 1019.30 1019.34 1019.34 1019.30 1019.26 1019.22 1019.10 1019.02 1018.90
1022.86 1022.90 1022.98 1022.82 1022.82 1022.90 1023.14 1023.02 1022.98 1022.78 1022.82 1022.70 1022.78 1022.78 1022.66 1022.70 1022.66 1022.70 1022.78 1022.90 1022.98 1023.34 1023.54 1023.14 1022.34 1022.10 1022.02 1021.62 1021.38 1021.18 1021.42 1021.06 1020.86 1020.66 1020.62 1020.30 1020.14 1019.82 1019.30 1019.10 1018.86 1018.74 1018.62 1018.54 1018.46 1018.38 1018.38 1018.38 1018.38 1018.38 1018.42 1018.46 1018.46 1018.46 1018.54 1018.66 1018.66 1018.62 1018.58 1018.62 1018.70 1018.78 1018.90 1018.98 1019.10 1019.14 1019.18 1019.22 1019.22 1019.22 1019.22 1019.14 1019.02 1018.90
1022.58 1022.70 1022.66 1022.58 1022.62 1022.74 1022.98 1022.90 1022.82 1022.78 1022.82 1022.74 1022.78 1022.78 1022.66 1022.58 1022.58 1022.66 1022.70 1022.74 1022.90 1023.06 1023.10 1023.14 1022.94 1022.22 1022.30 1021.98 1021.62 1021.26 1021.22 1021.50 1021.46 1021.02 1020.54 1020.26 1020.10 1020.02 1019.78 1019.30 1018.94 1018.66 1018.58 1018.54 1018.26 1018.22 1018.22 1018.18 1018.18 1018.18 1018.18 1018.22 1018.22 1018.22 1018.26 1018.34 1018.42 1018.42 1018.38 1018.38 1018.42 1018.50 1018.62 1018.74 1018.82 1018.94 1019.02 1019.06 1019.06 1019.02 1019.10 1019.10 1018.98 1018.86
1022.26 1022.34 1022.34 1022.38 1022.38 1022.54 1022.54 1022.66 1022.66 1022.62 1022.66 1022.70 1022.70 1022.62 1022.62 1022.50 1022.66 1022.70 1022.66 1022.70 1022.86 1022.94 1023.02 1022.86 1022.70 1022.62 1022.06 1022.06 1022.06 1021.26 1021.10 1021.22 1021.34 1021.62 1021.38 1020.94 1020.06 1020.02 1020.06 1019.90 1019.02 1018.74 1018.66 1018.34 1018.30 1018.26 1018.14 1018.06 1018.02 1017.90 1017.94 1017.98 1017.98 1017.94 1017.98 1018.06 1018.10 1018.14 1018.10 1018.10 1018.14 1018.26 1018.38 1018.50 1018.58 1018.66 1018.78 1018.82 1018.86 1018.90 1018.98 1019.02 1018.90 1018.78
1021.98 1021.98 1021.98 1022.02 1022.02 1022.10 1022.10 1022.18 1022.18 1022.26 1022.46 1022.38 1022.50 1022.30 1022.42 1022.50 1022.70 1022.74 1022.66 1022.78 1022.90 1022.98 1023.02 1023.02 1022.82 1022.54 1022.46 1021.98 1021.54 1021.26 1021.30 1021.46 1021.26 1021.14 1021.34 1021.62 1020.94 1020.34 1019.98 1019.82 1019.82 1019.06 1018.86 1018.74 1018.30 1018.10 1018.10 1017.98 1017.90 1017.82 1017.78 1017.74 1017.70 1017.70 1017.74 1017.70 1017.74 1017.78 1017.82 1017.82 1017.86 1017.94 1018.10 1018.22 1018.34 1018.46 1018.54 1018.62 1018.66 1018.70 1018.78 1018.82 1018.82 1018.74
1021.82 1021.78 1021.70 1021.66 1021.62 1021.62 1021.66 1021.62 1021.66 1021.66 1021.74 1022.06 1022.34 1022.06 1022.10 1022.34 1022.54 1022.62 1022.66 1022.78 1022.86 1022.94 1023.06 1022.98 1022.66 1022.74 1022.58 1022.22 1022.10 1021.90 1021.74 1021.74 1021.54 1020.94 1020.98 1021.14 1020.62 1020.46 1020.34 1019.62 1019.06 1019.06 1019.10 1018.70 1018.50 1018.26 1018.02 1018.14 1017.94 1017.82 1017.74 1017.34 1017.42 1017.38 1017.46 1017.38 1017.38 1017.42 1017.46 1017.54 1017.58 1017.62 1017.78 1017.94 1018.10 1018.22 1018.30 1018.42 1018.50 1018.58 1018.62 1018.66 1018.66 1018.62
1021.66 1021.58 1021.50 1021.30 1021.26 1021.30 1021.30 1021.34 1021.34 1021.38 1021.42 1021.42 1021.50 1021.58 1021.70 1021.94 1022.22 1022.34 1022.54 1022.62 1022.66 1022.86 1023.06 1022.90 1022.78 1022.90 1022.66 1022.14 1021.82 1021.86 1021.34 1020.90 1020.82 1021.02 1021.10 1021.38 1020.58 1020.50 1020.50 1019.98 1019.18 1018.66 1018.82 1018.94 1018.86 1018.18 1017.66 1017.98 1017.90 1017.78 1017.74 1017.10 1017.22 1017.18 1017.18 1017.02 1016.90 1016.98 1017.14 1017.22 1017.30 1017.34 1017.46 1017.66 1017.86 1018.02 1018.10 1018.22 1018.34 1018.38 1018.46 1018.54 1018.50 1018.50
1021.54 1021.34 1021.26 1021.18 1021.10 1021.14 1021.10 1021.02 1021.02 1021.06 1021.10 1021.14 1021.14 1021.06 1021.02 1021.14 1021.54 1022.02 1022.26 1022.26 1022.22 1022.54 1022.62 1022.38 1022.50 1022.58 1022.46 1021.86 1021.34 1021.42 1021.06 1020.78 1020.86 1020.90 1020.82 1020.98 1020.90 1021.10 1021.30 1021.26 1019.54 1018.42 1018.66 1018.94 1018.94 1018.38 1017.62 1017.78 1018.06 1017.62 1017.42 1017.06 1017.02 1016.98 1016.82 1016.62 1016.74 1016.82 1016.90 1016.98 1017.02 1017.10 1017.18 1017.34 1017.54 1017.74 1017.90 1018.02 1018.14 1018.22 1018.30 1018.38 1018.42 1018.42
1021.34 1021.26 1021.18 1021.06 1020.94 1020.90 1020.86 1020.82 1020.82 1020.82 1020.82 1020.86 1020.90 1020.90 1020.86 1020.90 1020.86 1020.90 1021.30 1021.70 1021.94 1021.98 1022.18 1022.22 1022.02 1022.02 1021.98 1021.54 1021.14 1020.94 1020.82 1020.66 1020.54 1020.46 1020.58 1020.70 1020.82 1020.94 1021.06 1020.82 1020.74 1018.98 1018.50 1018.98 1019.06 1018.58 1017.54 1017.70 1017.86 1017.74 1017.10 1016.82 1016.74 1016.58 1016.46 1016.46 1016.54 1016.58 1016.62 1016.70 1016.74 1016.86 1016.94 1017.06 1017.22 1017.42 1017.62 1017.78 1017.90 1018.02 1018.10 1018.18 1018.26 1018.26
1021.10 1021.06 1021.10 1020.98 1020.78 1020.58 1020.54 1020.66 1020.62 1020.66 1020.66 1020.58 1020.66 1020.74 1020.86 1020.86 1020.78 1020.82 1020.82 1020.70 1020.86 1020.82 1021.46 1021.66 1021.58 1021.34 1021.14 1021.22 1020.78 1020.26 1020.18 1019.94 1020.50 1020.26 1020.46 1020.34 1020.42 1020.46 1020.58 1020.26 1019.78 1018.86 1018.42 1018.94 1019.14 1018.86 1017.66 1017.58 1017.70 1017.70 1016.78 1016.54 1016.42 1016.30 1016.18 1016.18 1016.22 1016.26 1016.34 1016.38 1016.46 1016.54 1016.66 1016.78 1016.90 1017.06 1017.30 1017.50 1017.66 1017.78 1017.90 1018.02 1018.10 1018.18
1020.82 1020.78 1020.90 1020.90 1020.78 1020.46 1020.42 1020.42 1020.42 1020.50 1020.54 1020.54 1020.62 1020.66 1020.62 1020.54 1020.34 1020.34 1020.38 1020.46 1020.50 1020.54 1020.70 1020.86 1021.10 1020.22 1020.14 1020.46 1019.90 1019.34 1019.38 1020.02 1020.26 1020.18 1020.22 1019.90 1020.10 1020.14 1019.98 1019.22 1019.02 1018.38 1018.18 1018.86 1018.86 1018.82 1017.66 1017.38 1017.58 1017.62 1016.66 1016.22 1016.26 1016.06 1015.82 1015.82 1015.86 1015.94 1015.98 1016.06 1016.14 1016.22 1016.34 1016.46 1016.58 1016.74 1016.94 1017.14 1017.34 1017.50 1017.66 1017.82 1017.98 1018.10
1020.46 1020.46 1020.54 1020.62 1020.58 1020.38 1020.34 1020.22 1020.30 1020.46 1020.50 1020.58 1020.58 1020.58 1020.46 1020.26 1020.10 1019.98 1019.94 1019.86 1019.90 1020.10 1020.14 1020.18 1019.98 1019.62 1019.38 1019.38 1019.22 1019.02 1018.94 1019.22 1019.22 1019.22 1019.46 1019.46 1019.46 1019.22 1018.82 1018.82 1018.54 1018.34 1017.90 1018.22 1018.86 1019.38 1017.46 1017.18 1017.66 1017.26 1016.66 1016.18 1016.10 1015.66 1015.50 1015.46 1015.50 1015.58 1015.66 1015.74 1015.82 1015.90 1016.06 1016.18 1016.30 1016.46 1016.62 1016.78 1016.98 1017.14 1017.34 1017.54 1017.74 1017.94
1020.18 1020.18 1020.22 1020.30 1020.26 1020.14 1020.06 1019.86 1020.02 1020.14 1020.18 1020.38 1020.50 1020.46 1020.22 1020.02 1019.78 1019.58 1019.14 1019.02 1019.06 1019.14 1019.18 1019.26 1019.22 1019.06 1018.82 1018.70 1018.74 1018.62 1018.62 1018.70 1018.66 1018.82 1018.90 1018.98 1019.18 1019.42 1019.58 1019.58 1018.62 1018.66 1017.62 1017.70 1018.42 1018.70 1017.86 1016.98 1017.58 1017.10 1016.30 1016.18 1016.30 1015.54 1015.34 1015.06 1015.14 1015.26 1015.30 1015.42 1015.54 1015.70 1015.82 1015.94 1016.06 1016.18 1016.34 1016.50 1016.62 1016.78 1016.98 1017.22 1017.46 1017.74
1020.14 1020.06 1020.02 1020.06 1020.02 1019.94 1019.86 1019.62 1019.82 1020.02 1020.14 1020.26 1020.30 1020.30 1020.18 1019.90 1019.74 1019.38 1018.70 1018.58 1018.66 1018.70 1018.74 1018.70 1018.66 1018.58 1018.46 1018.42 1018.42 1018.42 1018.46 1018.62 1018.66 1019.06 1019.58 1019.66 1019.14 1019.66 1019.94 1019.26 1018.98 1018.54 1017.66 1017.50 1017.54 1018.02 1018.06 1017.02 1017.18 1017.06 1016.42 1016.30 1016.18 1015.70 1015.18 1014.78 1014.78 1014.94 1015.06 1015.18 1015.34 1015.46 1015.58 1015.70 1015.86 1015.98 1016.10 1016.22 1016.34 1016.46 1016.66 1016.90 1017.18 1017.46
1020.02 1019.94 1019.86 1019.78 1019.78 1019.82 1019.66 1019.54 1019.62 1019.82 1020.06 1020.18 1020.14 1020.18 1020.18 1020.10 1019.86 1019.26 1018.62 1018.54 1018.46 1018.30 1018.34 1018.34 1018.38 1018.34 1018.26 1018.22 1018.18 1018.22 1018.18 1018.18 1018.66 1019.18 1019.66 1018.70 1018.74 1019.34 1019.34 1019.46 1018.78 1018.02 1017.62 1017.26 1016.90 1018.02 1017.50 1016.70 1016.66 1017.02 1016.34 1016.22 1015.82 1015.42 1014.90 1014.74 1014.70 1014.82 1014.94 1015.06 1015.18 1015.26 1015.34 1015.46 1015.58 1015.74 1015.86 1015.98 1016.14 1016.30 1016.46 1016.66 1017.02 1017.30
1019.94 1019.82 1019.70 1019.62 1019.58 1019.54 1019.42 1019.46 1019.62 1019.86 1020.02 1019.98 1019.86 1019.90 1020.02 1020.06 1019.90 1019.18 1018.86 1018.98 1018.82 1018.50 1018.38 1018.22 1018.14 1018.14 1017.98 1017.94 1017.90 1017.70 1017.66 1017.78 1018.06 1018.18 1018.18 1018.02 1018.66 1019.02 1018.82 1018.74 1018.66 1018.82 1017.66 1016.46 1016.18 1017.78 1016.94 1016.86 1016.42 1016.74 1017.02 1016.82 1015.58 1015.02 1014.86 1014.74 1014.66 1014.70 1014.70 1014.78 1014.86 1015.02 1015.18 1015.26 1015.38 1015.46 1015.58 1015.74 1015.90 1016.10 1016.30 1016.54 1016.82 1016.82
1019.86 1019.74 1019.66 1019.54 1019.46 1019.58 1019.70 1019.74 1019.74 1019.78 1019.86 1019.82 1019.78 1019.78 1019.94 1019.94 1019.82 1018.82 1018.82 1018.70 1018.66 1018.50 1018.34 1018.14 1017.94 1017.90 1017.58 1017.46 1017.38 1017.34 1017.26 1017.26 1017.26 1017.38 1017.42 1017.54 1017.82 1018.22 1018.30 1018.22 1018.30 1018.50 1017.50 1016.30 1015.94 1016.86 1016.42 1016.30 1016.62 1016.18 1016.58 1017.34 1016.86 1015.42 1014.86 1014.66 1014.42 1014.42 1014.50 1014.58 1014.62 1014.62 1014.86 1015.02 1015.10 1015.22 1015.38 1015.50 1015.66 1015.82 1016.06 1016.30 1016.46 1016.38
1020.06 1019.86 1019.66 1019.42 1019.58 1019.74 1019.74 1019.74 1019.66 1019.58 1019.66 1019.70 1019.62 1019.66 1019.78 1019.54 1019.10 1018.94 1019.10 1018.82 1018.62 1018.54 1018.30 1018.14 1017.90 1017.70 1017.50 1017.34 1017.14 1017.06 1016.90 1016.74 1016.58 1016.54 1016.54 1016.62 1016.78 1017.22 1017.62 1017.70 1017.70 1017.42 1016.50 1015.70 1015.70 1016.22 1016.70 1016.10 1016.42 1016.34 1016.50 1016.58 1016.06 1015.90 1014.90 1014.74 1014.30 1014.26 1014.18 1014.26 1014.26 1014.26 1014.50 1014.58 1014.66 1014.82 1015.06 1015.34 1015.46 1015.62 1015.82 1015.94 1016.02 1015.86
1019.98 1019.82 1019.62 1019.46 1019.42 1019.50 1019.46 1019.38 1019.30 1019.26 1019.22 1019.30 1019.38 1019.22 1019.18 1019.10 1019.18 1019.10 1018.94 1018.86 1018.74 1018.58 1018.42 1018.22 1018.06 1017.74 1017.58 1017.34 1017.10 1016.86 1016.62 1016.38 1016.18 1016.06 1016.02 1016.02 1016.10 1016.06 1016.10 1016.42 1016.82 1016.94 1016.26 1015.06 1015.30 1015.74 1016.26 1016.38 1016.02 1016.22 1016.14 1016.50 1015.78 1015.58 1015.50 1014.78 1014.26 1014.10 1014.06 1014.10 1014.10 1014.02 1014.22 1014.38 1014.54 1014.62 1014.62 1014.74 1014.90 1015.06 1015.14 1015.46 1015.66 1015.62
1020.10 1019.78 1019.66 1019.42 1019.34 1019.42 1019.42 1019.38 1019.30 1019.22 1019.10 1019.06 1018.90 1018.86 1018.90 1018.90 1018.94 1019.06 1018.90 1018.74 1018.70 1018.54 1018.38 1018.26 1018.18 1017.82 1017.54 1017.42 1017.14 1016.82 1016.54 1016.10 1015.82 1015.74 1015.58 1015.46 1015.50 1015.50 1015.34 1015.18 1015.14 1015.22 1014.74 1014.66 1014.82 1015.10 1015.58 1015.78 1015.30 1015.78 1015.90 1015.66 1015.94 1015.30 1015.38 1015.30 1014.62 1014.02 1014.06 1013.86 1013.82 1013.82 1013.94 1014.18 1014.34 1014.30 1014.30 1014.46 1014.42 1014.62 1015.06 1015.22 1015.34 1015.46
1020.18 1020.02 1019.86 1019.78 1019.74 1019.66 1019.50 1019.38 1019.30 1019.18 1019.14 1018.86 1018.50 1018.46 1018.46 1018.50 1018.66 1018.74 1018.62 1018.50 1018.38 1018.34 1018.26 1018.22 1017.98 1017.62 1017.22 1017.06 1016.82 1016.50 1016.10 1015.86 1015.58 1015.46 1015.30 1015.18 1015.02 1015.02 1014.90 1014.78 1014.74 1014.50 1014.46 1014.46 1014.54 1014.74 1014.98 1015.26 1015.10 1014.90 1015.06 1015.46 1015.74 1015.70 1015.30 1013.98 1013.90 1013.82 1014.06 1013.34 1013.38 1013.50 1013.62 1013.82 1013.94 1014.02 1014.10 1014.30 1014.54 1014.74 1015.02 1015.06 1015.02 1015.34
1020.38 1020.34 1020.22 1020.02 1019.82 1019.66 1019.46 1019.34 1019.22 1019.02 1018.78 1018.62 1018.54 1018.38 1018.26 1018.30 1018.18 1018.14 1018.18 1018.14 1018.10 1018.18 1018.06 1017.82 1017.50 1017.22 1016.90 1016.66 1016.30 1015.86 1015.70 1015.46 1015.26 1015.30 1015.10 1014.86 1014.66 1014.50 1014.46 1014.38 1014.26 1014.14 1014.18 1014.10 1014.18 1014.26 1014.46 1014.66 1014.74 1014.50 1014.70 1014.78 1015.18 1014.70 1014.78 1014.30 1013.90 1013.58 1013.58 1013.82 1013.66 1013.10 1013.18 1013.38 1013.66 1013.82 1013.82 1013.86 1014.06 1014.18 1014.18 1014.06 1014.22 1014.42
1020.70 1020.46 1020.18 1019.86 1019.62 1019.42 1019.18 1019.06 1018.94 1018.82 1018.58 1018.46 1018.42 1018.30 1018.30 1018.26 1018.10 1018.02 1017.98 1017.98 1018.02 1017.90 1017.54 1017.30 1017.14 1016.70 1016.30 1016.06 1015.74 1015.50 1015.46 1015.54 1015.46 1015.30 1015.26 1015.06 1014.78 1014.62 1014.66 1014.54 1014.06 1013.66 1013.62 1013.62 1013.62 1013.66 1013.82 1013.98 1014.10 1014.18 1014.34 1014.26 1014.34 1014.34 1014.06 1014.18 1013.66 1013.18 1013.22 1013.54 1013.18 1012.62 1012.54 1012.94 1013.10 1013.14 1013.42 1013.50 1013.46 1013.50 1013.38 1013.54 1013.70 1013.98
1020.50 1020.18 1019.94 1019.70 1019.50 1019.30 1019.02 1018.90 1018.78 1018.70 1018.50 1018.38 1018.18 1018.02 1017.90 1017.82 1017.74 1017.66 1017.70 1017.70 1017.66 1017.54 1017.34 1017.06 1016.74 1016.34 1015.98 1015.62 1015.66 1015.66 1015.54 1015.46 1015.10 1014.94 1015.06 1015.02 1014.74 1014.62 1014.54 1014.66 1014.30 1013.86 1013.46 1013.14 1013.02 1013.10 1013.22 1013.30 1013.38 1013.58 1014.22 1013.94 1013.70 1013.62 1013.46 1013.46 1013.46 1013.18 1012.98 1012.86 1013.10 1013.82 1012.66 1012.58 1012.66 1012.82 1012.86 1012.86 1012.86 1012.94 1013.10 1013.18 1013.26 1013.26
1020.70 1020.22 1019.86 1019.58 1019.34 1019.10 1018.90 1018.74 1018.58 1018.50 1018.42 1018.26 1018.14 1017.98 1017.74 1017.62 1017.38 1017.26 1017.18 1017.18 1017.22 1017.14 1016.94 1016.78 1016.50 1016.26 1016.06 1016.06 1015.74 1015.50 1015.38 1015.14 1014.82 1014.58 1014.74 1014.78 1014.58 1014.38 1014.46 1014.78 1014.46 1013.90 1013.58 1013.22 1012.94 1012.70 1012.70 1012.70 1012.86 1012.90 1013.02 1013.14 1013.42 1012.94 1012.82 1013.02 1013.10 1012.90 1012.78 1012.46 1012.46 1012.18 1012.06 1012.26 1012.34 1012.38 1012.38 1012.50 1012.74 1012.74 1012.54 1012.54 1012.62 1012.58
1020.66 1020.30 1020.10 1020.02 1019.86 1019.82 1019.78 1019.66 1019.62 1019.50 1019.38 1019.14 1018.82 1018.50 1018.26 1017.86 1017.42 1017.22 1017.18 1017.26 1017.06 1016.78 1016.70 1016.66 1016.50 1016.30 1016.06 1015.86 1015.58 1015.46 1015.30 1015.02 1014.70 1014.34 1014.50 1014.30 1014.42 1014.10 1014.18 1014.54 1014.22 1014.06 1013.94 1013.50 1013.18 1012.86 1012.66 1012.46 1012.26 1012.30 1012.26 1012.18 1012.10 1012.26 1012.74 1013.06 1012.54 1012.38 1012.46 1012.18 1012.10 1011.90 1011.54 1011.34 1011.42 1011.54 1011.82 1012.38 1012.30 1012.02 1011.90 1011.74 1011.70 1011.66
1020.90 1020.78 1020.70 1020.66 1020.62 1020.54 1020.42 1020.38 1020.30 1020.18 1019.98 1019.74 1019.46 1019.10 1018.86 1018.50 1018.18 1018.02 1017.66 1017.42 1017.42 1017.14 1016.86 1016.50 1016.34 1016.14 1015.94 1015.82 1015.58 1015.42 1015.22 1014.82 1014.46 1014.18 1014.34 1014.30 1014.06 1014.26 1014.14 1014.14 1013.82 1013.42 1013.42 1013.34 1013.10 1012.90 1012.66 1012.46 1012.26 1012.10 1011.90 1011.70 1011.34 1011.38 1011.70 1012.30 1012.18 1011.86 1011.70 1011.58 1011.50 1011.42 1010.90 1010.82 1010.74 1010.86 1011.22 1011.34 1011.42 1011.66 1011.46 1011.18 1010.78 1010.74
1021.22 1021.22 1021.14 1021.10 1021.02 1020.98 1020.86 1020.78 1020.70 1020.54 1020.34 1020.14 1019.94 1019.62 1019.26 1018.90 1018.66 1018.50 1018.34 1018.22 1018.06 1017.66 1017.22 1016.74 1016.38 1016.06 1015.94 1015.78 1015.46 1015.34 1015.06 1014.82 1014.46 1014.10 1013.86 1013.86 1013.86 1013.98 1013.86 1013.86 1013.50 1013.26 1013.14 1013.06 1012.90 1012.62 1012.50 1012.50 1012.50 1012.62 1012.42 1012.22 1011.98 1011.02 1010.38 1010.70 1011.42 1011.18 1011.06 1010.90 1010.78 1010.74 1010.46 1010.18 1010.14 1010.26 1010.62 1010.94 1011.10 1011.34 1010.94 1010.54 1010.26 1009.90
1021.50 1021.46 1021.46 1021.42 1021.30 1021.22 1021.10 1021.06 1020.98 1020.82 1020.70 1020.54 1020.38 1020.06 1019.70 1019.38 1019.14 1019.06 1018.86 1018.70 1018.46 1018.02 1017.58 1017.38 1017.10 1016.58 1016.14 1015.74 1015.42 1015.14 1014.90 1014.66 1014.42 1014.14 1013.90 1013.74 1013.74 1013.62 1013.46 1013.38 1013.22 1012.98 1012.78 1012.70 1012.54 1012.26 1012.26 1012.34 1012.42 1012.82 1012.94 1012.54 1012.38 1011.98 1010.90 1009.66 1009.62 1009.98 1010.54 1010.42 1010.18 1010.22 1009.98 1009.90 1009.78 1009.78 1010.18 1010.62 1010.66 1010.90 1011.02 1010.50 1009.78 1009.22
1021.78 1021.70 1021.66 1021.62 1021.54 1021.50 1021.50 1021.38 1021.26 1021.10 1020.98 1020.90 1020.74 1020.58 1020.30 1019.98 1019.62 1019.42 1019.22 1019.10 1018.82 1018.46 1018.18 1017.94 1017.46 1016.94 1016.42 1016.02 1015.70 1015.22 1014.82 1014.58 1014.38 1013.98 1013.78 1013.46 1013.34 1013.26 1013.30 1013.06 1012.90 1012.66 1012.50 1012.14 1011.86 1011.82 1011.86 1012.14 1012.10 1012.42 1012.66 1012.70 1012.62 1012.34 1010.90 1009.82 1009.54 1008.98 1009.38 1009.86 1009.78 1009.58 1009.66 1009.58 1009.70 1009.78 1009.54 1009.70 1009.98 1010.22 1010.18 1009.78 1009.22 1008.62
1021.90 1021.78 1021.82 1021.78 1021.74 1021.74 1021.66 1021.54 1021.42 1021.26 1021.14 1020.98 1020.86 1020.70 1020.54 1020.34 1019.98 1019.70 1019.46 1019.30 1019.06 1018.74 1018.50 1018.18 1017.62 1017.14 1016.70 1016.38 1015.98 1015.50 1015.14 1014.66 1014.30 1013.94 1013.58 1013.30 1013.22 1013.06 1012.90 1012.78 1012.46 1012.22 1012.02 1011.62 1011.42 1011.38 1011.30 1011.50 1011.70 1011.82 1012.10 1012.38 1012.34 1011.90 1011.26 1009.66 1009.46 1009.14 1008.82 1009.06 1009.42 1009.18 1008.98 1009.30 1009.54 1009.50 1009.22 1008.86 1009.18 1008.98 1009.06 1009.30 1008.66 1007.98
1021.90 1021.90 1021.90 1021.98 1021.90 1021.86 1021.82 1021.70 1021.58 1021.42 1021.18 1021.02 1020.82 1020.70 1020.54 1020.30 1020.10 1019.86 1019.70 1019.50 1019.22 1019.02 1018.62 1018.22 1017.86 1017.62 1017.26 1016.62 1016.22 1016.02 1015.62 1015.22 1014.74 1014.22 1013.74 1013.34 1013.06 1012.90 1012.62 1012.38 1012.22 1011.78 1011.70 1011.50 1011.06 1010.98 1010.98 1011.22 1011.18 1011.26 1011.38 1011.62 1011.66 1011.14 1010.54 1010.18 1009.38 1008.58 1008.38 1008.38 1008.62 1008.90 1008.78 1008.90 1008.98 1008.70 1008.70 1008.66 1008.34 1008.14 1008.10 1007.54 1007.26 1007.22
1021.98 1021.98 1021.98 1021.90 1021.94 1021.86 1021.78 1021.66 1021.54 1021.42 1021.30 1021.14 1020.98 1020.74 1020.54 1020.30 1020.14 1019.94 1019.70 1019.50 1019.30 1019.02 1018.78 1018.42 1018.14 1017.74 1017.30 1017.02 1016.78 1016.34 1015.94 1015.58 1015.10 1014.50 1014.06 1013.74 1013.34 1013.02 1012.62 1012.26 1012.02 1011.70 1011.50 1011.34 1011.14 1010.78 1010.78 1010.78 1010.74 1010.70 1010.54 1010.26 1009.86 1009.46 1009.26 1009.10 1008.34 1007.78 1008.18 1008.22 1008.14 1008.14 1008.10 1008.22 1008.42 1008.34 1008.26 1007.90 1007.86 1008.18 1008.18 1007.86 1008.14 1007.34
1021.90 1021.98 1022.02 1022.02 1021.94 1021.86 1021.78 1021.62 1021.50 1021.38 1021.30 1021.14 1021.02 1020.86 1020.66 1020.46 1020.26 1019.94 1019.78 1019.58 1019.30 1019.06 1018.78 1018.50 1018.22 1017.90 1017.62 1017.38 1017.14 1016.94 1016.42 1015.82 1015.38 1014.94 1014.50 1014.10 1013.74 1013.30 1012.82 1012.50 1012.14 1011.82 1011.70 1011.42 1011.02 1010.62 1010.42 1010.06 1009.66 1009.34 1009.38 1009.30 1009.06 1008.98 1009.46 1009.70 1009.38 1008.22 1007.94 1007.54 1007.30 1007.30 1007.14 1007.18 1007.26 1007.42 1007.50 1007.14 1007.50 1007.90 1008.02 1007.94 1007.78 1007.58
1021.94 1021.98 1021.98 1021.90 1021.86 1021.70 1021.62 1021.58 1021.46 1021.38 1021.26 1021.14 1021.02 1020.82 1020.66 1020.46 1020.18 1019.98 1019.74 1019.42 1019.26 1019.06 1018.86 1018.54 1018.26 1018.06 1017.78 1017.50 1017.26 1016.94 1016.66 1016.26 1015.82 1015.38 1015.14 1014.90 1014.46 1013.82 1013.30 1012.90 1012.50 1011.94 1011.66 1011.34 1010.86 1010.22 1009.42 1009.10 1009.06 1009.10 1009.14 1009.26 1009.46 1009.90 1009.86 1009.50 1009.06 1008.22 1007.34 1006.94 1006.82 1006.66 1006.62 1006.58 1006.50 1006.30 1006.18 1006.46 1007.14 1007.82 1007.90 1007.74 1007.70 1008.02
1021.98 1022.02 1022.02 1021.90 1021.82 1021.70 1021.58 1021.50 1021.42 1021.30 1021.18 1021.02 1020.90 1020.74 1020.54 1020.30 1020.06 1019.82 1019.54 1019.34 1019.14 1018.98 1018.74 1018.54 1018.34 1018.18 1017.94 1017.70 1017.42 1017.18 1016.90 1016.58 1016.38 1016.10 1015.82 1015.42 1014.94 1014.30 1013.66 1013.06 1012.62 1012.18 1011.86 1011.34 1010.62 1009.94 1009.42 1009.14 1009.10 1009.14 1009.14 1009.22 1009.22 1009.26 1009.30 1008.74 1008.26 1007.94 1007.38 1006.90 1006.66 1006.38 1006.18 1006.06 1006.10 1005.98 1005.82 1005.70 1005.78 1005.98 1006.38 1006.90 1007.70 1008.06
1022.02 1022.02 1021.94 1021.86 1021.78 1021.66 1021.54 1021.42 1021.26 1021.14 1021.02 1020.90 1020.74 1020.58 1020.42 1020.18 1019.94 1019.70 1019.50 1019.30 1019.06 1018.86 1018.62 1018.46 1018.26 1018.14 1017.98 1017.74 1017.54 1017.30 1017.06 1016.78 1016.50 1016.26 1015.86 1015.46 1015.10 1014.66 1014.06 1013.38 1012.86 1012.42 1011.90 1011.38 1010.74 1009.98 1009.42 1009.14 1008.90 1008.86 1009.06 1008.98 1008.78 1008.86 1008.70 1008.38 1008.02 1007.54 1007.26 1006.78 1006.34 1006.34 1006.26 1005.90 1005.74 1005.66 1005.66 1005.66 1005.62 1005.70 1005.66 1005.66 1005.66 1005.38
1021.98 1021.98 1021.94 1021.86 1021.78 1021.62 1021.50 1021.34 1021.18 1021.02 1020.86 1020.66 1020.50 1020.34 1020.18 1019.98 1019.82 1019.58 1019.38 1019.18 1018.94 1018.70 1018.50 1018.30 1018.14 1017.98 1017.82 1017.62 1017.46 1017.18 1016.86 1016.66 1016.42 1015.98 1015.70 1015.34 1015.02 1014.70 1014.34 1013.82 1013.18 1012.46 1011.98 1011.42 1010.94 1010.10 1009.46 1009.10 1008.74 1008.54 1008.54 1008.34 1008.14 1008.14 1007.98 1007.82 1007.54 1007.22 1006.90 1006.70 1006.38 1006.02 1005.82 1005.74 1005.94 1005.78 1005.46 1005.10 1004.62 1004.82 1005.02 1005.10 1005.18 1005.22
Thickness
5775 5775 5775 5776 5776 5778 5779 5779 5780 5780 5780 5779 5777 5776 5773 5768 5761 5759 5760 5763 5770 5777 5781 5782 5787 5793 5793 5793 5793 5793 5793 5793 5793 5793 5793 5794 5794 5794 5794 5793 5794 5794 5793 5793 5792 5791 5790 5789 5787 5786 5785 5784 5783 5782 5780 5779 5777 5775 5774 5772 5770 5769 5768 5767 5766 5765 5765 5765 5765 5765 5763 5762 5760 5759
5776 5775 5775 5776 5777 5778 5779 5780 5781 5781 5780 5780 5779 5777 5777 5774 5768 5763 5760 5762 5769 5776 5780 5783 5786 5790 5792 5792 5792 5792 5792 5793 5793 5793 5794 5794 5794 5795 5795 5795 5795 5795 5795 5794 5793 5793 5791 5790 5789 5788 5786 5786 5784 5783 5781 5780 5778 5776 5775 5773 5771 5770 5769 5768 5766 5765 5765 5765 5766 5766 5765 5763 5762 5760
5776 5775 5775 5776 5777 5778 5779 5780 5781 5781 5781 5781 5780 5779 5778 5776 5774 5771 5765 5762 5769 5775 5777 5782 5787 5789 5790 5791 5792 5792 5793 5793 5794 5794 5795 5795 5796 5795 5795 5796 5796 5796 5795 5795 5795 5794 5792 5791 5790 5789 5788 5787 5786 5784 5782 5781 5780 5778 5776 5775 5773 5771 5770 5769 5768 5767 5766 5766 5767 5767 5766 5765 5763 5762
5776 5775 5775 5775 5777 5778 5779 5780 5780 5781 5781 5781 5780 5779 5779 5777 5776 5775 5771 5764 5769 5778 5781 5782 5788 5790 5790 5792 5792 5793 5794 5795 5795 5795 5796 5796 5796 5796 5797 5797 5797 5797 5797 5796 5796 5795 5794 5793 5792 5791 5790 5789 5787 5785 5783 5782 5781 5780 5778 5777 5774 5773 5771 5770 5769 5768 5767 5767 5767 5768 5767 5766 5765 5764
5776 5775 5775 5776 5778 5778 5778 5779 5780 5780 5780 5780 5780 5779 5778 5778 5777 5777 5774 5769 5769 5777 5783 5784 5787 5790 5791 5791 5793 5794 5794 5796 5796 5796 5797 5797 5797 5797 5798 5798 5799 5798 5799 5798 5797 5796 5796 5794 5794 5793 5792 5790 5789 5787 5785 5784 5783 5781 5780 5778 5777 5775 5774 5772 5771 5769 5768 5768 5768 5768 5768 5767 5766 5766
5775 5775 5775 5776 5778 5778 5777 5778 5779 5779 5780 5779 5778 5779 5778 5777 5778 5778 5776 5773 5770 5773 5780 5783 5785 5789 5790 5789 5792 5794 5794 5795 5797 5796 5797 5798 5798 5798 5799 5799 5800 5800 5800 5800 5799 5799 5797 5797 5796 5795 5793 5792 5790 5789 5787 5786 5785 5783 5782 5781 5779 5777 5776 5774 5773 5771 5770 5770 5769 5769 5769 5769 5768 5767
5774 5773 5773 5774 5777 5777 5777 5778 5779 5779 5780 5779 5778 5779 5779 5778 5778 5779 5778 5775 5772 5772 5776 5781 5782 5786 5788 5788 5791 5794 5794 5795 5796 5796 5797 5799 5799 5799 5800 5800 5801 5802 5801 5801 5801 5800 5800 5799 5799 5797 5795 5794 5793 5792 5789 5788 5787 5786 5784 5783 5782 5780 5778 5776 5774 5773 5772 5771 5771 5770 5770 5770 5770 5769
5773 5773 5773 5774 5776 5776 5775 5776 5778 5778 5779 5779 5779 5779 5780 5779 5779 5780 5779 5777 5775 5772 5773 5778 5781 5783 5785 5787 5790 5792 5793 5794 5795 5795 5796 5798 5799 5800 5800 5801 5802 5802 5802 5802 5802 5802 5802 5801 5801 5800 5798 5797 5795 5794 5793 5790 5789 5788 5787 5786 5784 5782 5781 5779 5776 5775 5774 5773 5772 5772 5772 5771 5771 5771
5774 5774 5774 5775 5776 5775 5774 5775 5776 5778 5778 5778 5779 5779 5780 5780 5780 5780 5780 5778 5777 5774 5772 5775 5780 5783 5783 5786 5789 5790 5790 5791 5793 5795 5796 5797 5798 5799 5800 5801 5802 5802 5802 5803 5803 5803 5803 5803 5803 5802 5800 5799 5798 5797 5795 5793 5791 5791 5790 5789 5787 5785 5783 5781 5779 5777 5776 5775 5774 5773 5773 5773 5773 5773
5776 5776 5776 5777 5777 5776 5775 5775 5776 5776 5777 5777 5778 5778 5779 5780 5780 5779 5779 5779 5777 5776 5775 5775 5777 5780 5782 5783 5786 5790 5789 5788 5789 5790 5793 5796 5798 5798 5799 5800 5802 5802 5802 5803 5803 5803 5804 5804 5804 5803 5802 5801 5801 5799 5797 5795 5793 5793 5792 5792 5790 5788 5786 5784 5782 5780 5778 5777 5777 5776 5776 5775 5775 5775
5777 5778 5777 5777 5778 5777 5776 5777 5777 5777 5777 5777 5777 5778 5778 5779 5778 5778 5779 5778 5777 5776 5776 5776 5777 5779 5781 5782 5784 5788 5791 5789 5788 5788 5787 5790 5795 5797 5797 5798 5801 5802 5802 5803 5804 5804 5804 5804 5804 5805 5804 5803 5802 5801 5799 5797 5796 5795 5794 5794 5792 5791 5789 5786 5785 5782 5781 5780 5779 5778 5778 5778 5777 5776
5778 5778 5779 5779 5779 5779 5779 5779 5779 5779 5778 5777 5778 5779 5779 5778 5777 5777 5777 5776 5776 5775 5774 5775 5777 5778 5780 5782 5784 5787 5788 5786 5787 5788 5786 5785 5789 5794 5794 5796 5799 5800 5801 5803 5804 5804 5805 5804 5805 5805 5805 5804 5803 5802 5801 5799 5798 5797 5796 5795 5794 5793 5791 5789 5787 5785 5784 5782 5781 5780 5780 5779 5778 5778
5778 5779 5780 5781 5781 5781 5782 5782 5782 5782 5782 5780 5779 5780 5780 5779 5777 5776 5776 5775 5774 5774 5773 5774 5775 5776 5777 5779 5782 5783 5784 5784 5786 5789 5787 5785 5788 5790 5791 5794 5798 5799 5800 5801 5802 5804 5805 5805 5805 5805 5805 5805 5804 5802 5801 5800 5800 5799 5798 5796 5796 5794 5792 5790 5788 5787 5785 5784 5783 5782 5781 5780 5780 5780
5777 5779 5780 5782 5782 5782 5783 5783 5783 5783 5784 5783 5782 5783 5782 5781 5779 5777 5776 5776 5775 5774 5772 5773 5774 5774 5774 5779 5781 5781 5784 5787 5787 5787 5785 5784 5787 5788 5786 5790 5797 5800 5800 5799 5799 5803 5806 5805 5804 5804 5805 5806 5804 5801 5801 5801 5800 5799 5799 5797 5796 5795 5794 5792 5789 5788 5786 5785 5784 5783 5783 5782 5781 5781
5776 5778 5779 5780 5781 5782 5783 5783 5783 5784 5783 5784 5784 5784 5784 5784 5782 5779 5777 5776 5776 5775 5774 5774 5775 5773 5774 5779 5782 5783 5785 5787 5787 5786 5786 5784 5784 5784 5781 5783 5790 5797 5799 5797 5797 5801 5805 5805 5803 5804 5806 5806 5804 5802 5802 5802 5801 5800 5799 5798 5797 5796 5794 5793 5791 5788 5787 5785 5784 5784 5783 5783 5782 5782
5776 5776 5777 5778 5780 5781 5781 5782 5782 5783 5782 5783 5783 5783 5783 5783 5783 5782 5780 5778 5778 5777 5775 5775 5775 5776 5776 5779 5782 5784 5786 5787 5787 5787 5786 5785 5784 5783 5781 5781 5786 5794 5799 5796 5795 5799 5804 5804 5802 5803 5806 5807 5805 5804 5804 5803 5802 5801 5800 5799 5797 5796 5795 5793 5791 5789 5788 5786 5785 5783 5783 5783 5782 5782
5776 5777 5777 5777 5779 5781 5782 5782 5782 5782 5782 5782 5782 5781 5781 5782 5782 5783 5782 5782 5781 5780 5778 5776 5776 5779 5780 5780 5783 5788 5789 5788 5787 5786 5786 5786 5785 5784 5784 5785 5789 5795 5797 5795 5795 5798 5803 5804 5802 5802 5806 5807 5805 5804 5804 5804 5803 5803 5801 5800 5799 5797 5795 5794 5792 5791 5789 5787 5785 5784 5783 5782 5782 5781
5777 5777 5777 5778 5779 5781 5781 5782 5782 5781 5781 5781 5781 5782 5782 5783 5784 5784 5784 5783 5783 5782 5781 5779 5780 5784 5785 5785 5787 5792 5792 5789 5787 5787 5786 5787 5786 5786 5788 5791 5794 5796 5797 5795 5794 5796 5802 5804 5801 5801 5805 5806 5805 5805 5805 5804 5804 5803 5802 5801 5799 5798 5796 5795 5793 5791 5790 5788 5786 5784 5783 5782 5780 5780
5778 5778 5778 5778 5779 5780 5782 5782 5782 5781 5780 5780 5780 5781 5782 5783 5785 5786 5786 5786 5785 5785 5785 5785 5785 5788 5790 5790 5791 5792 5792 5791 5791 5791 5790 5789 5788 5788 5791 5793 5794 5795 5797 5796 5791 5792 5800 5803 5798 5800 5805 5805 5804 5805 5805 5805 5804 5803 5802 5801 5800 5798 5796 5795 5793 5792 5790 5789 5787 5785 5784 5782 5780 5779
5778 5778 5778 5779 5779 5780 5781 5782 5781 5780 5780 5780 5780 5780 5782 5783 5785 5787 5789 5788 5787 5788 5788 5789 5789 5790 5792 5792 5792 5793 5792 5791 5792 5792 5790 5788 5787 5786 5787 5788 5791 5793 5796 5796 5791 5791 5798 5800 5797 5799 5804 5803 5803 5804 5805 5805 5804 5803 5802 5801 5799 5798 5796 5795 5793 5791 5791 5789 5787 5786 5785 5782 5780 5779
5775 5776 5777 5777 5778 5779 5780 5781 5780 5779 5779 5779 5779 5779 5780 5781 5783 5787 5789 5789 5788 5789 5790 5791 5791 5792 5793 5793 5792 5792 5791 5790 5789 5786 5784 5784 5784 5783 5783 5785 5789 5792 5795 5796 5792 5790 5795 5799 5797 5798 5802 5802 5800 5803 5805 5806 5804 5803 5802 5801 5799 5798 5796 5794 5793 5791 5790 5789 5787 5786 5785 5783 5781 5778
5773 5774 5775 5776 5776 5778 5779 5779 5778 5777 5777 5777 5778 5777 5778 5779 5781 5784 5787 5787 5787 5789 5790 5791 5791 5791 5792 5792 5792 5792 5791 5790 5787 5783 5783 5785 5784 5782 5782 5784 5787 5792 5795 5796 5793 5789 5794 5799 5797 5795 5798 5800 5801 5803 5804 5805 5804 5802 5802 5801 5799 5797 5796 5794 5792 5791 5789 5788 5787 5786 5785 5783 5780 5778
5772 5772 5773 5774 5775 5776 5777 5777 5776 5774 5774 5775 5776 5776 5776 5775 5778 5781 5784 5783 5784 5786 5787 5789 5790 5790 5791 5791 5791 5791 5791 5789 5787 5786 5788 5788 5785 5782 5784 5785 5784 5786 5793 5798 5794 5789 5793 5797 5796 5794 5792 5793 5798 5803 5803 5803 5803 5802 5801 5801 5799 5798 5796 5794 5793 5791 5790 5788 5786 5785 5784 5782 5779 5778
5768 5769 5770 5771 5772 5773 5772 5772 5772 5771 5771 5772 5774 5774 5773 5773 5776 5780 5782 5781 5782 5783 5785 5786 5788 5789 5790 5791 5791 5791 5791 5789 5788 5789 5790 5790 5788 5785 5785 5786 5784 5784 5792 5799 5796 5791 5793 5795 5794 5792 5789 5787 5792 5799 5800 5800 5801 5801 5800 5800 5799 5798 5797 5795 5794 5793 5791 5789 5787 5785 5783 5781 5780 5779
5763 5765 5766 5768 5768 5768 5768 5769 5769 5769 5769 5770 5771 5771 5771 5773 5775 5777 5777 5778 5779 5780 5781 5783 5785 5787 5788 5789 5790 5791 5791 5791 5791 5791 5792 5793 5792 5789 5788 5787 5786 5788 5795 5799 5796 5792 5792 5792 5791 5790 5787 5786 5789 5794 5796 5797 5799 5800 5800 5799 5799 5798 5797 5794 5793 5792 5791 5789 5787 5785 5783 5782 5780 5780
5759 5760 5762 5764 5765 5765 5766 5766 5767 5768 5768 5768 5768 5769 5769 5771 5772 5773 5773 5775 5775 5776 5778 5779 5781 5783 5784 5785 5787 5788 5789 5791 5792 5792 5793 5794 5793 5793 5792 5792 5790 5791 5796 5799 5797 5792 5790 5790 5790 5788 5785 5785 5788 5791 5792 5794 5797 5798 5799 5797 5798 5797 5796 5794 5792 5791 5790 5789 5787 5786 5784 5782 5780 5780
5753 5756 5757 5759 5760 5760 5761 5762 5764 5765 5765 5766 5767 5768 5767 5768 5768 5768 5771 5772 5772 5774 5775 5776 5777 5779 5780 5781 5783 5785 5787 5789 5791 5792 5792 5793 5792 5792 5794 5795 5794 5796 5799 5798 5795 5793 5790 5790 5790 5789 5786 5785 5787 5788 5788 5791 5794 5796 5796 5797 5797 5796 5794 5793 5791 5790 5789 5788 5786 5784 5782 5779 5778 5777
5747 5749 5750 5752 5753 5755 5756 5757 5758 5760 5761 5763 5764 5765 5766 5766 5766 5766 5768 5769 5769 5770 5771 5772 5774 5777 5778 5779 5781 5784 5786 5788 5790 5790 5790 5790 5790 5790 5792 5793 5795 5796 5797 5795 5793 5792 5790 5789 5789 5790 5788 5786 5784 5785 5788 5791 5794 5795 5794 5795 5796 5795 5794 5792 5789 5788 5788 5786 5784 5782 5780 5779 5778 5776
5741 5743 5744 5746 5748 5750 5752 5753 5754 5756 5758 5759 5760 5760 5761 5763 5764 5765 5766 5766 5767 5767 5769 5770 5773 5775 5778 5779 5781 5784 5785 5786 5787 5787 5787 5788 5789 5789 5789 5792 5794 5796 5795 5793 5791 5790 5789 5789 5789 5789 5788 5787 5785 5786 5788 5790 5793 5794 5792 5791 5793 5795 5794 5791 5788 5788 5787 5785 5785 5784 5782 5782 5781 5778
5736 5739 5740 5742 5744 5746 5748 5750 5751 5752 5754 5755 5756 5756 5757 5758 5760 5762 5762 5762 5763 5764 5766 5769 5771 5774 5777 5779 5781 5782 5782 5782 5783 5782 5782 5783 5785 5785 5785 5787 5792 5795 5794 5791 5790 5788 5787 5788 5788 5787 5786 5786 5787 5788 5788 5789 5791 5793 5792 5789 5790 5792 5793 5791 5789 5788 5786 5785 5786 5786 5784 5782 5780 5778
5732 5735 5737 5739 5741 5743 5744 5746 5747 5748 5749 5751 5752 5753 5754 5755 5757 5758 5759 5759 5760 5761 5763 5766 5769 5772 5774 5776 5777 5777 5777 5778 5780 5780 5778 5779 5781 5781 5780 5781 5787 5791 5791 5790 5789 5787 5785 5786 5787 5786 5785 5785 5787 5789 5789 5789 5790 5791 5791 5790 5789 5789 5790 5790 5787 5786 5785 5784 5785 5784 5782 5781 5780 5779
5727 5730 5732 5734 5736 5738 5739 5741 5741 5742 5743 5745 5747 5748 5750 5751 5754 5755 5756 5756 5757 5758 5760 5762 5764 5767 5769 5770 5771 5772 5773 5775 5777 5777 5776 5776 5777 5778 5776 5775 5780 5784 5785 5786 5786 5785 5783 5783 5784 5785 5786 5787 5788 5789 5788 5788 5788 5788 5789 5790 5789 5791 5792 5791 5788 5787 5785 5782 5782 5783 5783 5782 5782 5780
5720 5723 5725 5726 5728 5729 5730 5731 5731 5732 5733 5735 5737 5739 5742 5744 5747 5749 5750 5751 5752 5754 5756 5757 5759 5761 5763 5764 5766 5767 5769 5771 5773 5773 5773 5772 5773 5774 5772 5772 5775 5778 5778 5779 5780 5780 5780 5780 5781 5783 5786 5789 5790 5789 5785 5784 5786 5788 5788 5788 5788 5790 5792 5792 5791 5789 5786 5781 5781 5783 5783 5784 5784 5783
5712 5714 5715 5716 5717 5718 5719 5720 5721 5722 5723 5725 5728 5730 5732 5735 5738 5739 5741 5742 5744 5746 5749 5752 5754 5756 5758 5759 5761 5762 5764 5767 5769 5770 5770 5769 5769 5769 5768 5769 5773 5774 5774 5775 5776 5775 5775 5776 5777 5779 5782 5786 5789 5790 5787 5783 5784 5786 5788 5787 5788 5790 5791 5792 5792 5790 5787 5783 5782 5782 5783 5785 5787 5786
5702 5703 5705 5706 5707 5708 5709 5710 5712 5713 5714 5717 5718 5721 5724 5727 5728 5729 5731 5732 5733 5737 5741 5744 5747 5750 5752 5753 5756 5758 5759 5762 5764 5765 5766 5766 5765 5765 5765 5766 5768 5770 5771 5771 5772 5772 5772 5772 5771 5770 5772 5776 5780 5786 5789 5787 5785 5785 5786 5787 5788 5789 5790 5791 5791 5789 5787 5784 5780 5780 5781 5785 5788 5788
5692 5693 5695 5695 5697 5698 5700 5701 5702 5704 5705 5707 5709 5712 5715 5717 5719 5720 5721 5722 5724 5728 5731 5734 5736 5740 5744 5746 5749 5752 5754 5756 5758 5760 5762 5762 5761 5762 5763 5763 5765 5767 5767 5768 5770 5769 5768 5768 5766 5763 5763 5765 5768 5775 5784 5787 5786 5785 5786 5786 5788 5788 5788 5788 5788 5787 5785 5781 5778 5777 5778 5783 5789 5790
5683 5683 5685 5685 5687 5688 5689 5691 5693 5694 5696 5697 5699 5701 5704 5706 5709 5710 5711 5713 5716 5718 5721 5723 5726 5731 5735 5738 5741 5744 5747 5750 5753 5755 5757 5759 5758 5758 5759 5760 5762 5763 5765 5767 5769 5768 5766 5765 5763 5759 5758 5758 5759 5766 5778 5784 5785 5785 5785 5785 5785 5786 5785 5783 5782 5782 5782 5780 5779 5778 5777 5780 5787 5791
5674 5674 5675 5676 5677 5678 5679 5681 5683 5685 5686 5689 5690 5692 5694 5696 5699 5701 5702 5704 5706 5709 5711 5714 5717 5722 5725 5728 5731 5734 5738 5742 5745 5749 5751 5753 5754 5754 5755 5757 5760 5761 5762 5765 5767 5767 5765 5763 5762 5758 5755 5753 5754 5760 5770 5777 5781 5784 5784 5783 5782 5782 5781 5779 5777 5778 5781 5781 5780 5779 5778 5780 5786 5790
5665 5666 5666 5666 5667 5669 5670 5672 5673 5675 5677 5679 5681 5684 5686 5688 5690 5692 5694 5695 5697 5699 5702 5705 5708 5710 5714 5718 5721 5724 5727 5731 5735 5740 5743 5745 5747 5748 5750 5752 5755 5758 5759 5761 5763 5764 5762 5760 5759 5757 5754 5753 5756 5760 5765 5772 5780 5784 5783 5780 5778 5776 5775 5775 5775 5777 5779 5780 5778 5778 5779 5780 5783 5785
5656 5657 5657 5658 5659 5660 5661 5662 5664 5666 5668 5669 5671 5674 5676 5679 5681 5683 5685 5687 5689 5691 5693 5695 5698 5701 5704 5706 5709 5712 5716 5720 5724 5729 5733 5735 5738 5741 5743 5746 5748 5751 5753 5755 5758 5760 5758 5756 5756 5756 5756 5757 5762 5764 5765 5769 5779 5784 5781 5777 5775 5774 5774 5774 5774 5774 5776 5778 5775 5774 5774 5773 5774 5776
5646 5647 5648 5649 5650 5651 5652 5654 5655 5657 5658 5659 5662 5664 5666 5669 5671 5673 5675 5677 5679 5681 5684 5686 5689 5691 5694 5696 5697 5700 5705 5709 5713 5718 5721 5724 5727 5731 5734 5736 5740 5743 5745 5747 5752 5756 5757 5756 5756 5756 5757 5758 5760 5760 5757 5760 5769 5778 5780 5777 5776 5775 5775 5774 5774 5775 5777 5777 5772 5768 5767 5767 5766 5767
5638 5637 5638 5639 5640 5641 5643 5644 5645 5647 5649 5650 5652 5654 5656 5659 5661 5664 5666 5669 5670 5672 5675 5677 5679 5681 5683 5686 5688 5690 5693 5698 5701 5705 5707 5710 5713 5718 5723 5726 5730 5734 5736 5739 5745 5752 5756 5755 5754 5752 5752 5752 5751 5748 5749 5753 5761 5770 5776 5777 5776 5774 5774 5773 5774 5775 5777 5777 5772 5766 5763 5760 5757 5758
5628 5629 5629 5630 5631 5631 5633 5634 5635 5637 5639 5640 5642 5644 5647 5649 5652 5654 5656 5659 5661 5663 5665 5668 5670 5671 5673 5676 5678 5680 5682 5686 5689 5691 5694 5697 5700 5706 5712 5716 5719 5724 5727 5731 5738 5745 5750 5750 5748 5746 5744 5745 5745 5743 5745 5751 5757 5762 5768 5773 5773 5771 5771 5772 5772 5772 5774 5774 5773 5770 5766 5762 5756 5757
5619 5619 5619 5620 5621 5622 5623 5624 5626 5627 5629 5631 5633 5635 5637 5639 5642 5644 5646 5649 5651 5653 5655 5658 5660 5662 5664 5666 5668 5670 5673 5675 5678 5681 5684 5687 5690 5694 5699 5703 5709 5714 5718 5723 5729 5736 5741 5742 5743 5741 5739 5740 5742 5740 5741 5747 5752 5756 5761 5766 5768 5768 5767 5767 5768 5768 5769 5770 5770 5769 5767 5764 5762 5763
5609 5610 5611 5611 5611 5612 5613 5614 5616 5618 5619 5621 5623 5625 5627 5630 5632 5634 5636 5638 5640 5643 5645 5647 5650 5652 5654 5656 5658 5661 5664 5666 5668 5672 5676 5679 5681 5684 5687 5692 5696 5702 5708 5713 5718 5725 5731 5734 5736 5735 5734 5736 5738 5738 5738 5743 5747 5750 5755 5759 5762 5764 5764 5763 5762 5763 5765 5769 5772 5768 5765 5762 5761 5761